Regional Weather Roundup
Issued by NWS Sterling, VA

Home | Current Version | Previous Version | Graphics & Text | Print | Product List | Glossary On
Versions: 1 2 3 4 5 6 7 8 9 10 11 12 13 14 15 16 17 18 19 20 21 22 23 24 25 26 27 28 29 30 31 32 33 34 35 36 37 38 39 40 41 42 43 44 45 46 47 48 49 50
000
ASUS41 KLWX 260810
RWRLWX

REGIONAL WEATHER ROUNDUP
NATIONAL WEATHER SERVICE BALTIMORE MD/WASHINGTON DC
300 AM EST WED NOV 26 2014

Note: "FAIR" indicates few or no clouds below 12,000 feet
with no significant weather and/or obstructions to visibility.
 TC=TEMPERATURE CELSIUS

 * =Non NWS site. Station does not report precipitation (e.g. rain,
    snow, etc.), thunder, or fog.

DCZ001-MDZ009-015-VAZ040>042-051-053>054-260900-
WASHINGTON METRO

CITY           SKY/WX    TMP DP  RH WIND       PRES   REMARKS
WASHINGTON NAT LGT RAIN  50  39  66 N7        30.11F
DULLES         LGT RAIN  42  39  89 NW5       30.12F
ANDREWS AFB    LGT RAIN  46  39  76 N7        30.08F
FT BELVOIR     CLOUDY    47  40  76 W2        30.09F
QUANTICO       LGT RAIN  47  41  80 NW3       30.09F
COLLEGE PARK*  CLOUDY    46  36  66 N6        30.11F
LEESBURG*      LGT RAIN  43  37  81 CALM      30.13S
MANASSAS*      CLOUDY    45  43  93 CALM      30.11F
GAITHERSBURG*  CLOUDY    45  32  61 CALM      30.16S

$$

MDZ006>007-011-014-260900-
BALTIMORE METRO

CITY           SKY/WX    TMP DP  RH WIND       PRES   REMARKS
BWI AIRPORT    CLOUDY    47  35  63 N3        30.11F
MD SCIENCE CTR   N/A     49  37  63 MISG      30.13F
MARTIN STATE   CLOUDY    45  39  81 CALM      30.15F
ANNAPOLIS      LGT RAIN  47  37  68 NW5       30.10F
FORT MEADE*    CLOUDY    43  36  75 CALM      30.14F

$$

MDZ012-015-019>023-260900-
MARYLAND EASTERN SHORE

CITY           SKY/WX    TMP DP  RH WIND       PRES   REMARKS
OCEAN CITY     LGT RAIN  50  41  71 NE12      30.09F
SALISBURY      LGT RAIN  49  40  71 NE7       30.09F
BAY BRIDGE AP* DRIZZLE   46  37  71 CALM      30.11F
CAMBRIDGE*     CLOUDY    46  41  81 NE3       30.08F
EASTON*        LGT RAIN  48  41  77 E6        30.14F

$$

MDZ017>025-260900-
SOUTHERN MARYLAND

CITY           SKY/WX    TMP DP  RH WIND       PRES   REMARKS
PATUXENT RIVER LGT RAIN  47  41  80 N8        30.08F
ST INIGOES     LGT RAIN  47  40  76 N5        30.07F
LEONARDTOWN*   CLOUDY    45  41  87 CALM      30.09F

$$

MDZ003>005-260900-
NORTH CENTRAL MARYLAND

CITY           SKY/WX    TMP DP  RH WIND       PRES   REMARKS
FREDERICK*     CLOUDY    41  32  70 N7        30.17S
HAGERSTOWN APT CLOUDY    43  29  57 N10       30.13F
WESTMINSTER*   CLOUDY    43  30  61 E7        30.12F

$$

MDZ501>502-260900-
WESTERN MARYLAND

CITY           SKY/WX    TMP DP  RH WIND       PRES   REMARKS
OAKLAND*       CLOUDY    30  30 100 E5        30.08R
CUMBERLAND*    CLOUDY    41  28  60 N6        30.19R

$$

VAZ025>031-260900-
SHENANDOAH VALLEY

CITY           SKY/WX    TMP DP  RH WIND       PRES   REMARKS
WINCHESTER*    CLOUDY    43  27  52 N3        30.13R
FRONT ROYAL*   CLOUDY    41  32  70 CALM      30.12R
LURAY*         CLOUDY    43  36  75 N5        30.09R
NEW MARKET*    CLOUDY    39  33  80 N8        30.09R
STAUNTON*      LGT RAIN  41  35  78 N3        30.09F
WAYNESBORO*    CLOUDY    40  39  95 CALM      30.07S

$$

WVZ021-048>050-054>055-260900-
EASTERN WEST VIRGINIA PANHANDLE

CITY           SKY/WX    TMP DP  RH WIND       PRES   REMARKS
MARTINSBURG    CLOUDY    43  28  55 N7        30.14S
PETERSBURG*    CLOUDY    36  32  85 CALM      30.13F

$$

VAZ036>039-050-260900-
CENTRAL FOOTHILLS

CITY           SKY/WX    TMP DP  RH WIND       PRES   REMARKS
CHARLOTTESVILL LGT RAIN  44  40  85 N5        30.07F
CULPEPER*      DRIZZLE   46  41  81 N5        30.09F
ORANGE*        LGT RAIN  46  41  81 NW6       30.09F
GORDONSVILLE*  CLOUDY    45  40  81 NE6       30.06F
WARRENTON*     DRIZZLE   46  43  90 N6        30.08F

$$

VAZ055>057-260900-
NORTH AND CENTRAL PIEDMONT

CITY           SKY/WX    TMP DP  RH WIND       PRES   REMARKS
FREDERICKSBRG* LGT RAIN  47  43  85 CALM      30.07F
STAFFORD*      RAIN      46  39  76 CALM      30.12F

$$

NCZ024-NYZ072-PAZ021-071-VAZ022-071-260900-
OTHER REGIONAL OBSERVATIONS

CITY           SKY/WX    TMP DP  RH WIND       PRES   REMARKS
NEW YORK CITY  CLOUDY    50  27  40 VRB3      30.22R
PHILADELPHIA   CLOUDY    46  38  73 CALM      30.18F
PITTSBURGH     CLOUDY    31  25  78 CALM      30.17R
ROANOKE        LGT RAIN  42  38  85 NE7       30.03F
RICHMOND       RAIN      47  44  90 NE10      30.04F FOG
RALEIGH        RAIN      50  47  89 N7        29.93F VSB 1

$$

ANZ530>537-260900-
MARINE OBSERVATIONS

STATION/POSITION TIME  TEMP    WIND        PRES
                       AIR SEA DIR/SP/G
                 (UTC) (F)     (DEG/KT/KT) (MB)
THOMAS PT LIGHT  0800   47 48   30/ 11/ 11 1020.0F
BALT KEY BRIDGE  0800   47      40/  5/  6 1020.3F
COVE POINT       0800   47      30/  7/  9 1018.4F
LEWISETTA        0800   48 50   30/  5/  8 1018.1R
SOLOMONS ISLAND  0800      50                N/A
PINEY POINT      0800           20/  6/  7   N/A

$$



USA.gov is the U.S. government's official web portal to all federal, state and local government web resources and services.